[[[{"header":{"parameterUnit":"kt","parameterCategory":2,"dx":1,"dy":1,"la1":30.253999710083008,"la2":30.299108505249023,"lo1":-89.0895004272461,"lo2":-89.04439544677734,"nx":28,"ny":28,"refTime":"2022-10-01T21:00:00:Z","depth":0,"parameterNumber":1,"parameterNumberName":"U-component_of_WINDS"},"data":[-2.882,-2.8917,-2.8913,-2.9023,-2.9037,-2.9112,-2.9137,-2.917,-2.9194,-2.9283,-2.9333,-2.9339,-2.9362,-2.9422,-2.9476,-2.9478,-2.9503,-2.9541,-2.9537,-2.9369,-2.9345,-2.9323,-2.9301,-2.9545,-2.9546,-2.9713,-2.9714,-2.9715,-2.8698,-2.8713,-2.8769,-2.8821,-2.887,-2.883,-2.8868,-2.8912,-2.898,-2.901,-2.9059,-2.9137,-2.9198,-2.9208,-2.9267,-2.9313,-2.9299,-2.933,-2.9328,-2.9333,-2.9152,-2.9128,-2.934,-2.934,-2.934,-2.934,-2.934,-2.934,-2.8476,-2.8535,-2.8563,-2.8624,-2.8648,-2.8683,-2.8738,-2.8743,-2.8799,-2.8858,-2.8841,-2.8918,-2.8948,-2.9016,-2.9038,-2.9098,-2.9064,-2.9096,-2.9105,-2.9115,-2.9127,-2.8892,-2.9107,-2.9106,-2.9106,-2.9105,-2.9105,0,-2.8313,-2.8305,-2.8358,-2.8411,-2.8455,-2.8495,-2.8531,-2.8565,-2.8546,-2.8593,-2.866,-2.8698,-2.8773,-2.8836,-2.8889,-2.8905,-2.8872,-2.8866,-2.8889,-2.8901,-2.8905,-2.8908,-2.8617,-2.8861,-2.8859,-2.8857,-2.8856,-2.8855,-2.8092,-2.816,-2.8187,-2.8225,-2.8243,-2.8305,-2.8341,-2.8319,-2.8358,-2.84,-2.8453,-2.8515,-2.8564,-2.8672,-2.8679,-2.8735,-2.872,-2.8814,-2.8729,-2.8736,-2.8726,-2.8724,-2.8732,-2.8833,-2.8836,-2.8838,-2.884,0,-2.7969,-2.796,-2.8064,-2.8083,-2.809,-2.8163,-2.818,-2.8237,-2.8235,-2.8314,-2.8331,-2.833,-2.8396,-2.8387,-2.8461,-2.8454,-2.8577,-2.8558,-2.8566,-2.8564,-2.865,-2.8643,-2.8924,-2.8961,-2.8703,-2.8705,-2.8707,0,-2.7779,-2.7869,-2.7851,-2.7911,-2.801,-2.7986,-2.8085,-2.8093,-2.8118,-2.818,-2.8137,-2.8197,-2.8175,-2.8233,-2.8223,-2.8321,-2.8334,-2.8336,-2.8333,-2.8342,-2.8343,-2.8366,-2.8356,-2.8319,-2.8318,-2.8316,-2.8315,0,-2.759,-2.7684,-2.7781,-2.7802,-2.7832,-2.7878,-2.7893,-2.792,-2.7955,-2.7999,-2.8023,-2.8076,-2.8106,-2.8148,-2.8136,-2.8078,-2.8253,-2.8172,-2.8256,-2.8257,-2.8299,-2.8297,-2.8544,-2.8313,-2.8313,-2.8313,-2.8312,0,-2.7437,-2.7481,-2.7622,-2.7646,-2.7672,-2.7736,-2.7787,-2.7839,-2.787,-2.7868,-2.7903,-2.7875,-2.7956,-2.7877,-2.7991,-2.792,-2.7952,-2.7961,-2.7966,-2.7977,-2.7889,-2.8034,-2.8267,-2.8293,-2.7982,-2.7979,-2.7976,0,-2.7225,-2.7364,-2.7344,-2.7479,-2.7542,-2.7492,-2.7562,-2.7591,-2.7594,-2.7648,-2.7651,-2.7714,-2.7652,-2.7671,-2.7728,-2.7734,-2.7826,-2.7721,-2.7805,-2.7808,-2.7802,-2.8015,-2.8054,-2.8216,-2.7941,-2.7945,-2.7947,0,-2.7059,-2.7094,-2.7119,-2.7142,-2.7175,-2.7228,-2.7308,-2.7364,-2.7402,-2.7438,-2.7507,-2.7593,-2.7551,-2.7582,-2.7565,-2.7625,-2.7763,-2.7572,-2.7572,-2.761,-2.7921,-2.7958,-2.7985,-2.7738,-2.7743,-2.7746,-2.7919,0,-2.6836,-2.6903,-2.697,-2.702,-2.7058,-2.7141,-2.713,-2.7172,-2.7151,-2.7153,-2.7251,-2.7273,-2.7331,-2.7358,-2.7338,-2.7478,-2.7454,-2.7408,-2.7333,-2.7471,-2.7529,-2.7552,-2.7249,-2.7246,-2.7245,-2.7243,0,0,-2.6637,-2.6733,-2.6709,-2.6785,-2.6817,-2.6763,-2.6853,-2.6877,-2.6928,-2.6951,-2.6908,-2.7034,-2.7054,-2.7176,-2.7218,-2.724,-2.7265,-2.7217,-2.7405,-2.7423,-2.744,-2.7501,-2.7525,-2.7239,-2.7239,-2.7238,-2.7237,0,-2.6554,-2.6572,-2.666,-2.6683,-2.6717,-2.6713,-2.6734,-2.6759,-2.6764,-2.6859,-2.6816,-2.6874,-2.6974,-2.7002,-2.7029,-2.7201,-2.7167,-2.7219,-2.7317,-2.7385,-2.7406,-2.7424,-2.7489,-2.7512,-2.7233,-2.7233,-2.7233,0,-2.6392,-2.6409,-2.645,-2.6516,-2.6538,-2.6604,-2.6521,-2.6594,-2.6643,-2.6582,-2.6678,-2.6689,-2.6724,-2.6839,-2.689,-2.6853,-2.7077,-2.7004,-2.7016,-2.7022,-2.7089,-2.7114,-2.7136,-2.6846,-2.6844,-2.6843,0,0,-2.6321,-2.6383,-2.6396,-2.6497,-2.6514,-2.651,-2.6543,-2.6526,-2.6558,-2.6571,-2.6584,-2.6618,-2.6676,-2.6715,-2.6769,-2.6896,-2.6904,-2.6956,-2.6975,-2.699,-2.7004,-2.7075,-2.7099,-2.6838,-2.6838,-2.6838,0,0,-2.6288,-2.6306,-2.6279,-2.6396,-2.6427,-2.6447,-2.651,-2.6478,-2.6526,-2.6515,-2.6491,-2.6499,-2.6606,-2.6618,-2.6553,-2.6743,-2.6668,-2.6683,-2.6732,-2.6754,-2.6772,-2.6769,-2.6474,0,0,0,0,0,-2.6198,-2.6304,-2.6279,-2.6297,-2.6381,-2.646,-2.6471,-2.6453,-2.64,-2.6451,-2.6457,-2.6416,-2.6578,-2.652,-2.6539,-2.6613,-2.6775,-2.6786,-2.6796,-2.6888,-2.6912,-2.6933,0,0,0,0,0,0,-2.6205,-2.6226,-2.6276,-2.6301,-2.6319,-2.6456,-2.6364,-2.6361,-2.6394,-2.6385,-2.6416,-2.6417,-2.6404,-2.651,-2.6527,-2.6597,-2.6468,-2.6779,-2.6789,-2.6797,-2.6896,-2.6916,-2.6933,0,0,0,0,0,-2.621,-2.6227,-2.6367,-2.6299,-2.6315,-2.6316,-2.6359,-2.6357,-2.6382,-2.6392,-2.6391,-2.6365,-2.6406,-2.642,-2.652,-2.659,-2.6456,-2.6462,-2.6785,-2.6793,-2.6799,-2.6906,0,0,0,0,0,0,-2.6214,-2.6226,-2.637,-2.6374,-2.6257,-2.6308,-2.6315,-2.6353,-2.6386,-2.6387,-2.6339,-2.6332,-2.6409,-2.6419,-2.643,-2.6588,-2.6446,-2.6453,-2.6457,-2.6791,-2.6797,-2.6802,0,0,0,0,0,0,-2.6217,-2.623,-2.6372,-2.6321,-2.6319,-2.6301,-2.6308,-2.639,-2.6387,-2.6332,-2.6326,-2.6335,-2.6394,-2.6419,-2.6427,-2.6556,-2.6439,-2.6445,-2.6449,-2.6452,-2.6796,-2.68,0,0,0,0,0,0,-2.6222,-2.6234,-2.632,-2.6318,-2.6317,-2.6364,-2.6373,-2.6461,-2.6342,-2.6331,-2.6331,-2.6326,-2.6396,-2.6403,-2.6426,-2.6552,-2.6555,-2.6439,-2.6443,-2.6446,-2.6448,0,0,0,0,0,0,0,-2.6227,-2.6152,-2.6344,-2.6316,-2.6314,-2.6414,-2.6416,-2.6417,-2.6341,-2.6337,-2.6332,-2.6328,-2.6403,-2.6409,-2.6416,-2.6548,0,0,-2.6438,-2.6441,0,0,0,0,0,0,0,0,-2.6147,-2.6151,-2.6344,-2.6345,-2.6346,-2.6415,-2.6416,-2.6417,-2.634,-2.6337,-2.6333,-2.633,-2.6404,-2.641,-2.6416,0,0,0,0,0,0,0,0,0,0,0,0,0,0,0,-2.6345,-2.6345,0,-2.6415,-2.6416,-2.6416,-2.634,-2.6337,-2.6334,-2.6331,-2.6406,-2.6411,-2.6415,0,0,0,0,0,0,0,0,0,0,0,0,0,0,0,0,0,0,0,0,0,0,0,0,0,0,0,0,0,0,0,0,0,0,0,0,0,0,0,0,0,0,0,0,0,0,0,0,0,0,0,0,0,0,0,0,0,0,0,0,0,0,0,0,0,0,0,0,0]}],[{"header":{"parameterUnit":"kt","parameterCategory":2,"dx":1,"dy":1,"la1":30.253999710083008,"la2":30.299108505249023,"lo1":-89.0895004272461,"lo2":-89.04439544677734,"nx":28,"ny":28,"refTime":"2022-10-01T21:00:00:Z","depth":0,"parameterNumber":2,"parameterNumberName":"V-component_of_WINDS"},"data":[-7.5254,-7.5362,-7.5368,-7.5491,-7.5517,-7.5601,-7.5633,-7.5673,-7.5706,-7.5804,-7.5861,-7.5874,-7.5906,-7.5972,-7.6032,-7.6035,-7.6061,-7.6096,-7.6094,-7.5935,-7.5913,-7.5892,-7.5869,-7.6101,-7.6102,-7.6259,-7.626,-7.6261,-7.5139,-7.5166,-7.5233,-7.5302,-7.5359,-7.5328,-7.5378,-7.5427,-7.5502,-7.5543,-7.5599,-7.5685,-7.5752,-7.5771,-7.5835,-7.5882,-7.587,-7.5899,-7.5896,-7.5901,-7.5731,-7.5706,-7.5908,-7.5908,-7.5908,-7.5908,-7.5908,-7.5908,-7.493,-7.4994,-7.5039,-7.5111,-7.5146,-7.5191,-7.5252,-7.5268,-7.5331,-7.5401,-7.5391,-7.5475,-7.5514,-7.5591,-7.5617,-7.5681,-7.5648,-7.568,-7.5688,-7.5697,-7.5707,-7.5481,-7.5691,-7.569,-7.569,-7.5689,-7.5689,0,-7.4779,-7.4779,-7.4843,-7.491,-7.4962,-7.5013,-7.5059,-7.5096,-7.5094,-7.5145,-7.5221,-7.5264,-7.5348,-7.5417,-7.5476,-7.5496,-7.5466,-7.5463,-7.5485,-7.5492,-7.5492,-7.5494,-7.5218,-7.5457,-7.5455,-7.5453,-7.5452,-7.5451,-7.4569,-7.4643,-7.4691,-7.4735,-7.4762,-7.4833,-7.4875,-7.4868,-7.4913,-7.4966,-7.5021,-7.5091,-7.5146,-7.5262,-7.5275,-7.5336,-7.5323,-7.5414,-7.5331,-7.5336,-7.5325,-7.5321,-7.5329,-7.543,-7.5433,-7.5435,-7.5437,0,-7.4451,-7.4458,-7.4573,-7.4612,-7.4624,-7.47,-7.4732,-7.4793,-7.48,-7.4886,-7.4905,-7.4915,-7.4987,-7.4986,-7.5066,-7.5063,-7.5185,-7.517,-7.5173,-7.517,-7.5252,-7.5245,-7.5517,-7.5553,-7.5311,-7.5313,-7.5315,0,-7.4275,-7.4371,-7.4376,-7.4442,-7.4548,-7.4538,-7.4642,-7.4658,-7.4692,-7.4759,-7.4726,-7.4789,-7.4777,-7.484,-7.4835,-7.4934,-7.4949,-7.4952,-7.495,-7.4956,-7.4956,-7.4979,-7.4968,-7.4941,-7.4939,-7.4938,-7.4937,0,-7.409,-7.4204,-7.4311,-7.4338,-7.4388,-7.4437,-7.446,-7.4497,-7.4538,-7.459,-7.4616,-7.4677,-7.471,-7.4756,-7.475,-7.4694,-7.4871,-7.4793,-7.4875,-7.4875,-7.4914,-7.4912,-7.5154,-7.4935,-7.4935,-7.4934,-7.4934,0,-7.3949,-7.4005,-7.4159,-7.42,-7.423,-7.4299,-7.436,-7.4419,-7.4461,-7.4463,-7.4503,-7.4481,-7.4567,-7.449,-7.4609,-7.4539,-7.4573,-7.4584,-7.4589,-7.4597,-7.4511,-7.4649,-7.4879,-7.4903,-7.4604,-7.4602,-7.4599,0,-7.3736,-7.3893,-7.3886,-7.4031,-7.4103,-7.4064,-7.414,-7.4178,-7.4187,-7.4248,-7.4256,-7.4325,-7.4267,-7.4288,-7.4347,-7.4359,-7.445,-7.4346,-7.4431,-7.4434,-7.4424,-7.4635,-7.467,-7.4829,-7.4564,-7.4568,-7.457,0,-7.3571,-7.3632,-7.3659,-7.3689,-7.3739,-7.3798,-7.3886,-7.3952,-7.3994,-7.4039,-7.4111,-7.4206,-7.4167,-7.4201,-7.4189,-7.425,-7.4388,-7.4199,-7.4199,-7.4234,-7.4545,-7.4579,-7.4606,-7.4365,-7.4369,-7.4373,-7.4542,0,-7.3358,-7.3437,-7.3509,-7.3575,-7.3621,-7.3711,-7.3712,-7.376,-7.3744,-7.3752,-7.3857,-7.3886,-7.3951,-7.398,-7.3964,-7.4106,-7.4081,-7.4038,-7.3963,-7.4101,-7.4157,-7.418,-7.388,-7.3878,-7.3876,-7.3874,0,0,-7.3153,-7.3266,-7.3255,-7.334,-7.3378,-7.3335,-7.3432,-7.3463,-7.3526,-7.3553,-7.3511,-7.3649,-7.3674,-7.3801,-7.3844,-7.387,-7.3895,-7.3847,-7.4035,-7.4053,-7.407,-7.4129,-7.4153,-7.3871,-7.387,-7.387,-7.3869,0,-7.3076,-7.3106,-7.3203,-7.3235,-7.3283,-7.3287,-7.331,-7.3349,-7.3358,-7.3461,-7.3422,-7.3484,-7.3594,-7.3626,-7.3657,-7.3831,-7.3797,-7.3851,-7.3946,-7.4016,-7.4037,-7.4055,-7.4118,-7.414,-7.3864,-7.3865,-7.3865,0,-7.2915,-7.2945,-7.2992,-7.3076,-7.3107,-7.3181,-7.3103,-7.3184,-7.3238,-7.3183,-7.3286,-7.3302,-7.3343,-7.3464,-7.3517,-7.348,-7.3709,-7.3635,-7.3647,-7.3653,-7.3721,-7.3745,-7.3767,-7.3479,-7.3477,-7.3476,0,0,-7.2848,-7.2921,-7.2949,-7.306,-7.3082,-7.3089,-7.3127,-7.3116,-7.3156,-7.3172,-7.3191,-7.323,-7.3293,-7.3336,-7.3395,-7.3527,-7.3534,-7.3588,-7.3606,-7.3621,-7.3635,-7.3707,-7.3731,-7.3471,-7.3471,-7.3471,0,0,-7.2815,-7.2854,-7.2832,-7.296,-7.3001,-7.3035,-7.3101,-7.3074,-7.3128,-7.3118,-7.31,-7.3109,-7.3221,-7.3237,-7.3171,-7.3368,-7.3294,-7.3309,-7.3354,-7.3377,-7.3395,-7.3388,-7.3093,0,0,0,0,0,-7.2737,-7.2849,-7.2829,-7.285,-7.2956,-7.3046,-7.3059,-7.3049,-7.2997,-7.305,-7.3062,-7.3023,-7.3198,-7.3139,-7.3159,-7.3233,-7.3407,-7.3418,-7.3429,-7.3517,-7.3541,-7.3561,0,0,0,0,0,0,-7.2745,-7.2772,-7.2826,-7.2864,-7.2888,-7.3042,-7.2952,-7.2953,-7.2991,-7.2983,-7.3022,-7.3024,-7.3015,-7.3127,-7.3146,-7.3217,-7.3087,-7.3411,-7.3421,-7.343,-7.3525,-7.3545,-7.3562,0,0,0,0,0,-7.2752,-7.2773,-7.2946,-7.2863,-7.2883,-7.2896,-7.2948,-7.2947,-7.2977,-7.2995,-7.2996,-7.2966,-7.3017,-7.3032,-7.3138,-7.3208,-7.3074,-7.3081,-7.3418,-7.3425,-7.3432,-7.3535,0,0,0,0,0,0,-7.2757,-7.2772,-7.2949,-7.2955,-7.282,-7.2887,-7.2897,-7.2943,-7.2986,-7.2989,-7.2937,-7.293,-7.302,-7.3031,-7.3042,-7.3206,-7.3063,-7.307,-7.3075,-7.3423,-7.3429,-7.3435,0,0,0,0,0,0,-7.2761,-7.2778,-7.2952,-7.2899,-7.2898,-7.2879,-7.2888,-7.2976,-7.2987,-7.2926,-7.2921,-7.2933,-7.3002,-7.3031,-7.304,-7.3177,-7.3055,-7.3062,-7.3067,-7.307,-7.3428,-7.3433,0,0,0,0,0,0,-7.2767,-7.2782,-7.2897,-7.2897,-7.2896,-7.2959,-7.2956,-7.3064,-7.2944,-7.2924,-7.2933,-7.2928,-7.3003,-7.3011,-7.3038,-7.3172,-7.3176,-7.3055,-7.306,-7.3063,-7.3065,0,0,0,0,0,0,0,-7.2773,-7.2679,-7.2916,-7.2895,-7.2894,-7.3008,-7.301,-7.3011,-7.2943,-7.2939,-7.2934,-7.293,-7.3016,-7.3024,-7.3031,-7.3168,0,0,-7.3055,-7.3058,0,0,0,0,0,0,0,0,-7.2673,-7.2678,-7.2916,-7.2917,-7.2918,-7.3008,-7.301,-7.3011,-7.2942,-7.2939,-7.2935,-7.2932,-7.3018,-7.3024,-7.303,0,0,0,0,0,0,0,0,0,0,0,0,0,0,0,-7.2916,-7.2917,0,-7.3009,-7.301,-7.3011,-7.2942,-7.2939,-7.2936,-7.2933,-7.302,-7.3025,-7.303,0,0,0,0,0,0,0,0,0,0,0,0,0,0,0,0,0,0,0,0,0,0,0,0,0,0,0,0,0,0,0,0,0,0,0,0,0,0,0,0,0,0,0,0,0,0,0,0,0,0,0,0,0,0,0,0,0,0,0,0,0,0,0,0,0,0,0,0,0]}]]]